Weather History for Elizabethton, TN

Change the Weather History Date:

Tuesday, August 6, 2013

  Actual Average (KTRI) Record (KTRI)
Temperature  
Mean Temperature 71 °F 74 °F  
Max Temperature 82 °F 85 °F 94 °F (1955)
Min Temperature 60 °F 63 °F 51 °F (1950)
Degree Days  
Heating Degree Days 0 0  
Month to date heating degree days 0  
Since 1 June heating degree days 11  
Since 1 July heating degree days 0  
Cooling Degree Days 6 9  
Month to date cooling degree days 56  
Year to date cooling degree days 634  
Since 1 June cooling degree days 561  
Growing Degree Days 21 (Base 50)    
Moisture  
Dew Point 63 °F    
Average Humidity 77    
Maximum Humidity 100    
Minimum Humidity 54    
Precipitation  
Precipitation 0.00 in 0.13 in 1.18 in (1990)
Month to date precipitation 0.78  
Year to date precipitation 26.76  
Snow  
Snow 0.00 in 0.00 in - ()
Month to date snowfall 0.0  
Since 1 June snowfall 0.0  
Since 1 July snowfall 0.0  
Snow Depth -    
Sea Level Pressure  
Sea Level Pressure 30.04 in    
Wind  
Wind Speed 0 mph (NW)    
Max Wind Speed 5 mph    
Max Gust Speed -    
Visibility 10 miles    
Events      
T = Trace of Precipitation, MM = Missing Value Source: NWS Daily Summary

Daily Weather History Graph

Daily Weather History Graph

Search for Another Location

Airport:

Trip Planner

Search our weather history database for the weather conditions in past years. The results will help you decide how hot, cold, wet, or windy it might be!

Date:

Astronomy

Aug. 06, 2013 Rise Set
Actual Time 6:39 AM EDT 8:29 PM EDT
Civil Twilight 6:11 AM EDT 8:57 PM EDT
Nautical Twilight 5:37 AM EDT 9:30 PM EDT
Astronomical Twilight 5:01 AM EDT 10:06 PM EDT
Moon 6:27 AM EDT (8/6) 8:05 PM EDT (8/6)
Length of Visible Light 14h 45m
Length of Day
13h 49m
Waning Crescent, 0% of the Moon is Illuminated
Aug 6
Waning Crescent
Aug 6
New
Aug 14
First Quarter
Aug 20
Full
Aug 28
Last Quarter

Hourly Weather History & Observations

Time (EDT) Temp. Heat Index Dew Point Humidity Pressure Visibility Wind Dir Wind Speed Gust Speed Precip Events Conditions
12:15 AM 64.4 °F - 60.8 °F 88% 30.03 in 10.0 mi Calm Calm - N/A   Clear
12:35 AM 64.4 °F - 60.8 °F 88% 30.05 in 10.0 mi Calm Calm - N/A   Mostly Cloudy
12:55 AM 64.4 °F - 60.8 °F 88% 30.04 in 10.0 mi Calm Calm - N/A   Mostly Cloudy
1:15 AM 64.4 °F - 60.8 °F 88% 30.04 in 10.0 mi Calm Calm - N/A   Mostly Cloudy
1:35 AM 64.4 °F - 60.8 °F 88% 30.04 in 10.0 mi Calm Calm - N/A   Mostly Cloudy
1:55 AM 64.4 °F - 60.8 °F 88% 30.04 in 10.0 mi Calm Calm - N/A   Mostly Cloudy
2:15 AM 64.4 °F - 59.0 °F 83% 30.03 in 10.0 mi Calm Calm - N/A   Scattered Clouds
2:35 AM 62.6 °F - 59.0 °F 88% 30.03 in 10.0 mi Calm Calm - N/A   Partly Cloudy
2:55 AM 60.8 °F - 59.0 °F 94% 30.02 in 10.0 mi Calm Calm - N/A   Clear
3:15 AM 62.6 °F - 59.0 °F 88% 30.02 in 10.0 mi Calm Calm - N/A   Scattered Clouds
3:35 AM 60.8 °F - 60.8 °F 100% 30.01 in 10.0 mi Calm Calm - N/A   Partly Cloudy
3:55 AM 62.6 °F - 59.0 °F 88% 30.01 in 10.0 mi Calm Calm - N/A   Clear
4:15 AM 60.8 °F - 60.8 °F 100% 30.02 in 10.0 mi Calm Calm - N/A   Scattered Clouds
4:35 AM 62.6 °F - 60.8 °F 94% 30.03 in 10.0 mi Calm Calm - N/A   Overcast
4:55 AM 62.6 °F - 60.8 °F 94% 30.03 in 10.0 mi Calm Calm - N/A   Overcast
5:15 AM 62.6 °F - 59.0 °F 88% 30.03 in 10.0 mi Calm Calm - N/A   Overcast
5:35 AM 62.6 °F - 59.0 °F 88% 30.03 in 10.0 mi Calm Calm - N/A   Overcast
5:55 AM 62.6 °F - 59.0 °F 88% 30.03 in 10.0 mi NNE 3.5 mph - N/A   Overcast
6:15 AM 62.6 °F - 59.0 °F 88% 30.03 in 10.0 mi Calm Calm - N/A   Overcast
6:35 AM 64.4 °F - 59.0 °F 83% 30.04 in 10.0 mi East 3.5 mph - N/A   Overcast
6:55 AM 64.4 °F - 60.8 °F 88% 30.04 in 10.0 mi Calm Calm - N/A   Overcast
7:15 AM 64.4 °F - 60.8 °F 88% 30.05 in 10.0 mi Calm Calm - N/A   Overcast
7:35 AM 64.4 °F - 60.8 °F 88% 30.05 in 10.0 mi Calm Calm - N/A   Overcast
7:55 AM 66.2 °F - 60.8 °F 83% 30.06 in 10.0 mi Calm Calm - N/A   Scattered Clouds
8:15 AM 66.2 °F - 60.8 °F 83% 30.07 in 10.0 mi Calm Calm - N/A   Clear
8:35 AM 68.0 °F - 60.8 °F 78% 30.07 in 10.0 mi Calm Calm - N/A   Clear
8:55 AM 69.8 °F - 60.8 °F 73% 30.07 in 10.0 mi Calm Calm - N/A   Mostly Cloudy
9:15 AM 69.8 °F - 62.6 °F 78% 30.07 in 10.0 mi Calm Calm - N/A   Overcast
9:35 AM 71.6 °F - 62.6 °F 73% 30.07 in 10.0 mi Calm Calm - N/A   Mostly Cloudy
9:55 AM 73.4 °F - 62.6 °F 69% 30.07 in 10.0 mi Calm Calm - N/A   Scattered Clouds
10:15 AM 75.2 °F - 62.6 °F 65% 30.07 in 10.0 mi Calm Calm - N/A   Overcast
10:35 AM 73.4 °F - 62.6 °F 69% 30.08 in 10.0 mi WNW 3.5 mph - N/A   Overcast
10:55 AM 73.4 °F - 62.6 °F 69% 30.08 in 10.0 mi Calm Calm - N/A   Mostly Cloudy
11:15 AM 73.4 °F - 62.6 °F 69% 30.08 in 10.0 mi Calm Calm - N/A   Mostly Cloudy
11:35 AM 73.4 °F - 62.6 °F 69% 30.08 in 10.0 mi Calm Calm - N/A   Mostly Cloudy
11:55 AM 75.2 °F - 62.6 °F 65% 30.08 in 10.0 mi NW 3.5 mph - N/A   Mostly Cloudy
12:15 PM 78.8 °F - 62.6 °F 57% 30.07 in 10.0 mi West 3.5 mph - N/A   Mostly Cloudy
12:35 PM 78.8 °F - 62.6 °F 57% 30.07 in 10.0 mi Calm Calm - N/A   Partly Cloudy
12:55 PM 78.8 °F - 62.6 °F 57% 30.07 in 10.0 mi SSE 3.5 mph - N/A   Partly Cloudy
1:15 PM 80.6 °F 81.8 °F 62.6 °F 54% 30.06 in 10.0 mi West 3.5 mph - N/A   Mostly Cloudy
1:35 PM 80.6 °F 81.8 °F 62.6 °F 54% 30.06 in 10.0 mi Calm Calm - N/A   Mostly Cloudy
1:55 PM 80.6 °F 82.3 °F 64.4 °F 58% 30.06 in 10.0 mi West 3.5 mph - N/A   Partly Cloudy
2:15 PM 80.6 °F 82.3 °F 64.4 °F 58% 30.05 in 10.0 mi Calm Calm - N/A   Clear
2:35 PM 80.6 °F 81.8 °F 62.6 °F 54% 30.05 in 10.0 mi Calm Calm - N/A   Clear
2:55 PM 80.6 °F 81.8 °F 62.6 °F 54% 30.05 in 10.0 mi WNW 4.6 mph - N/A   Scattered Clouds
3:15 PM 80.6 °F 81.8 °F 62.6 °F 54% 30.04 in 10.0 mi Calm Calm - N/A   Scattered Clouds
3:35 PM 80.6 °F 82.3 °F 64.4 °F 58% 30.03 in 10.0 mi NNW 4.6 mph - N/A   Partly Cloudy
3:55 PM 80.6 °F 81.8 °F 62.6 °F 54% 30.02 in 10.0 mi Calm Calm - N/A   Scattered Clouds
4:15 PM 82.4 °F 83.9 °F 64.4 °F 54% 30.02 in 10.0 mi Calm Calm - N/A   Scattered Clouds
4:35 PM 80.6 °F 82.3 °F 64.4 °F 58% 30.02 in 10.0 mi North 3.5 mph - N/A   Scattered Clouds
4:55 PM 80.6 °F 82.7 °F 66.2 °F 61% 30.02 in 10.0 mi Calm Calm - N/A   Mostly Cloudy
5:15 PM 80.6 °F 82.7 °F 66.2 °F 61% 30.02 in 10.0 mi NNW 3.5 mph - N/A   Mostly Cloudy
5:35 PM 80.6 °F 82.7 °F 66.2 °F 61% 30.03 in 10.0 mi Calm Calm - N/A   Mostly Cloudy
5:55 PM 80.6 °F 82.7 °F 66.2 °F 61% 30.03 in 10.0 mi Calm Calm - N/A   Scattered Clouds
6:15 PM 80.6 °F 82.7 °F 66.2 °F 61% 30.03 in 10.0 mi Calm Calm - N/A   Mostly Cloudy
6:35 PM 80.6 °F 83.2 °F 68.0 °F 65% 30.03 in 10.0 mi Calm Calm - N/A   Scattered Clouds
6:55 PM 82.4 °F 85.4 °F 68.0 °F 62% 30.03 in 10.0 mi Calm Calm - N/A   Partly Cloudy
7:15 PM 78.8 °F - 69.8 °F 74% 30.03 in 10.0 mi Calm Calm - N/A   Scattered Clouds
7:35 PM 75.2 °F - 69.8 °F 83% 30.03 in 10.0 mi Calm Calm - N/A   Partly Cloudy
7:55 PM 73.4 °F - 69.8 °F 88% 30.03 in 10.0 mi Calm Calm - N/A   Scattered Clouds
8:15 PM 71.6 °F - 68.0 °F 88% 30.03 in 10.0 mi Calm Calm - N/A   Mostly Cloudy
8:35 PM 71.6 °F - 66.2 °F 83% 30.04 in 10.0 mi Calm Calm - N/A   Partly Cloudy
8:55 PM 71.6 °F - 66.2 °F 83% 30.04 in 10.0 mi Calm Calm - N/A   Mostly Cloudy
9:15 PM 69.8 °F - 66.2 °F 88% 30.03 in 10.0 mi Calm Calm - N/A   Mostly Cloudy
9:35 PM 68.0 °F - 66.2 °F 94% 30.04 in 10.0 mi Calm Calm - N/A   Partly Cloudy
9:55 PM 68.0 °F - 66.2 °F 94% 30.05 in 10.0 mi Calm Calm - N/A   Scattered Clouds
10:15 PM 69.8 °F - 66.2 °F 88% 30.06 in 10.0 mi Calm Calm - N/A   Scattered Clouds
10:35 PM 69.8 °F - 66.2 °F 88% 30.06 in 10.0 mi Calm Calm - N/A   Clear
10:55 PM 71.6 °F - 66.2 °F 83% 30.06 in 10.0 mi Calm Calm - N/A   Clear
11:15 PM 69.8 °F - 66.2 °F 88% 30.06 in 10.0 mi East 3.5 mph - N/A   Partly Cloudy
11:35 PM 69.8 °F - 66.2 °F 88% 30.06 in 10.0 mi Calm Calm - N/A   Mostly Cloudy
11:55 PM 69.8 °F - 66.2 °F 88% 30.06 in 10.0 mi Calm Calm - N/A   Mostly Cloudy